Weather History for Tindouf, Algeria

Change the Weather History Date:

Tuesday, February 26, 2013

  Actual Average Record
Temperature  
Mean Temperature 68 °F -  
Max Temperature 86 °F - - ()
Min Temperature 50 °F - - ()
Cooling Degree Days 3    
Growing Degree Days 18 (Base 50)    
Moisture  
Dew Point 23 °F    
Average Humidity 22    
Maximum Humidity 47    
Minimum Humidity 4    
Precipitation  
Precipitation 0.00 in - - ()
Sea Level Pressure  
Sea Level Pressure 29.85 in    
Wind  
Wind Speed 4 mph ()    
Max Wind Speed 18 mph    
Max Gust Speed -    
Visibility 8.4 miles    
Events      
T = Trace of Precipitation, MM = Missing Value Source: Averaged Metar Reports

Daily Weather History Graph

Daily Weather History Graph

Search for Another Location

Airport:

Trip Planner

Search our weather history database for the weather conditions in past years. The results will help you decide how hot, cold, wet, or windy it might be!

Date:

Astronomy

Feb. 26, 2013 Rise Set
Actual Time 8:00 AM CET 7:31 PM CET
Civil Twilight 7:36 AM CET 7:54 PM CET
Nautical Twilight 7:09 AM CET 8:22 PM CET
Astronomical Twilight 6:42 AM CET 8:49 PM CET
Moon 8:23 PM CET 8:02 AM CET
Length of Visible Light 12h 18m
Length of Day
11h 31m
Full, 100% of the Moon is Illuminated
Feb 26
Full
Mar 4
Last Quarter
Mar 11
New
Mar 19
First Quarter
Mar 27
Full

Hourly Weather History & Observations

Time (CET) Temp. Dew Point Humidity Pressure Visibility Wind Dir Wind Speed Gust Speed Precip Events Conditions
12:00 AM 62.6 °F 26.6 °F 26% 29.89 in - Calm Calm - N/A   Clear
1:00 AM 61 °F 29 °F 18% 29.86 in 6 mi Calm Calm - -   Clear
1:00 AM 60.8 °F 28.4 °F 29% 29.89 in - Calm Calm - N/A   Clear
2:00 AM 59.0 °F 28.4 °F 31% 29.89 in - Calm Calm - N/A   Clear
3:00 AM 57.2 °F 30.2 °F 36% 29.86 in - Calm Calm - N/A   Clear
4:00 AM 55 °F 30 °F 26% 29.83 in 6 mi NNW 6.9 mph - -   Clear
4:00 AM 55.4 °F 30.2 °F 38% 29.86 in - NNW 6.9 mph - N/A   Clear
5:00 AM 53.6 °F 30.2 °F 41% 29.86 in - NNW 4.6 mph - N/A   Clear
6:00 AM 51.8 °F 30.2 °F 44% 29.86 in - NNW 4.6 mph - N/A   Clear
7:00 AM 51 °F 30 °F 32% 29.84 in 6 mi NNW 9.2 mph - -  
7:00 AM 50.0 °F 30.2 °F 47% 29.86 in - NNW 9.2 mph - N/A   Clear
9:00 AM 51.8 °F 23.0 °F 33% 29.89 in - NW 6.9 mph - N/A   Clear
10:00 AM 61 °F 19 °F 10% 29.88 in 16 mi Calm Calm - -   Clear
10:00 AM 60.8 °F 19.4 °F 20% 29.92 in - Calm Calm - N/A   Clear
11:00 AM 68.0 °F 19.4 °F 16% 29.92 in - Calm Calm - N/A   Clear
12:00 PM 71.6 °F 21.2 °F 15% 29.92 in - Calm Calm - N/A   Clear
1:00 PM 77 °F 22 °F 6% 29.86 in 12 mi West 5.8 mph - -   Scattered Clouds
1:00 PM 77.0 °F 21.2 °F 12% 29.89 in - West 5.8 mph - N/A   Clear
2:00 PM 80.6 °F 19.4 °F 10% 29.89 in - Calm Calm - N/A   Clear
3:00 PM 82.4 °F 17.6 °F 9% 29.86 in - West 9.2 mph - N/A   Clear
4:00 PM 84 °F - % 29.79 in 9 mi West 11.5 mph - -   Scattered Clouds
4:00 PM - - N/A% 29.83 in - West 11.5 mph - N/A   Clear
5:00 PM - - N/A% 29.83 in - West 18.4 mph - N/A   Clear
6:00 PM - - N/A% 29.80 in - West 13.8 mph - N/A   Clear
7:00 PM 83 °F - % 29.77 in 6 mi West 16.1 mph - -   Scattered Clouds
7:00 PM - - N/A% 29.80 in - West 16.1 mph - N/A   Clear
9:00 PM 75.2 °F 14.0 °F 10% 29.83 in - West 8.1 mph - N/A   Clear
10:00 PM 70 °F 12 °F 4% 29.80 in 6 mi West 9.2 mph - -   Scattered Clouds
10:00 PM 69.8 °F 12.2 °F 11% 29.83 in - West 9.2 mph - N/A   Clear
11:00 PM 68.0 °F 15.8 °F 13% 29.83 in - West 11.5 mph - N/A   Clear